STARLINK-34109, 63807

Orbit data source: Space-Track

STARLINK-34109, 63807 is a payload satellite owned by SpaceX/Seattle (US) in LEO that was launched on Sun, 04 May 2025 UTC via an FALCON 9 launch vehicle from the Air Force Eastern Test Range (AFETR). Payload-class satellites include a variety of spacecraft equipped with specific instruments for various scientific and technological missions. These include communications satellites like Starlink; space stations such as the ISS; scientific satellites like the Hubble; Earth observation satellites from companies like Planet Labs, Umbra, and HawkEye 360; GPS; miniature CubeSats for education and research; and military/defense satellites.

Loading next visibility...
Identifier
63807, 2025-092D
Orbit
LEO
Country
Flag of USUS
Related business
Manufacturer
SpaceX/Seattle
Mission
Operational Commercial Communications
Bus & Motor
STARLINK V2MO, Unknown motor
Mass
575 kg wet, ~530 kg dry
Launch date (UTC)
2025-05-04 (9 months ago)
Launch vehicle
FALCON 9
Launch site
Air Force Eastern Test Range (AFETR)
Object type
Payload
Rocket body
Debris
Shape & HBR
Box + 2 Pan, 17.7 m
Radar Cross Section
36.964 m², Large (>1 m²)

Expand to show TLE details & history
Last TLE update: 15 hours ago

TLE from 15 hours ago
0 STARLINK-34109
1 63807U 25092D   26034.59991981  .00033367  00000-0  12159-2 0  9990
2 63807  42.9993   4.8442 0000997  22.8242 337.2653 15.27597327 43407
Epoch: 2026-02-03T14:23Z
TLE epoch observation values (Epoch: 2026-02-03T14:23:53.071Z)
Latitude
-0.00008°
Longitude
15.09446°
Altitude
482.142 km
Speed
7.627 km/s
True Right ascension
00h 19m 22s
True Declination
0° 00' 00"
Sunlit
Object was in daylight at epoch
Visualization orbit readout
Latitude
Unknown
Longitude
Unknown
Altitude
Unknown
Speed
Unknown
Apparent Right ascension
Unknown
Apparent Declination
Unknown
Sunlit
N/A
Visualization observer readout
Local Sidereal Time
07:08:57
Azimuth
Unknown
Elevation
Unknown
Doppler factor
Unknown
Orbital elements
Apogee altitude
485.627 km
Perigee altitude
484.258 km
Semi-major axis
6,863.08 km
Eccentricity
0.0001
Inclination
42.9993°
RAAN
4.8442°
Arg. of periapsis
22.8242°
True anomaly
337.26088°
Mean anomaly
337.2653°
Eccentric anomaly
337.26309°
Mean motion
3.81737 °/min
Orbital period
94.31 mins
BSTAR
0.0012159
Loading maneuver chart data...
Computing Atmospheric mass density...
Loading historical data...
Loading historical data...
Loading historical data...
Loading historical data...
Loading historical data...
Loading historical data...
Loading historical data...

Documentation

Showing up to 5 results
|